Location: Newark
(42.6333°N, 43.1333°E)
Time: 05:21:33
(UTC+00:00)

Envisat - Visible Passes

Search period start: 23 August 2019 00:00
Search period end: 02 September 2019 00:00
Orbit: 764 x 766 km, 98.1° (Epoch: 22 August)

Date Brightness Start Highest point End Pass type
(mag) Time Alt. Az. Time Alt. Az. Time Alt. Az.
23 Aug 5.9 16:44:59 10° SW 16:47:53 15° W 16:50:47 10° NW visible
26 Aug 5.8 16:32:56 10° SW 16:36:31 19° W 16:40:07 10° NW visible
28 Aug 6.3 17:01:22 10° W 17:02:20 10° W 17:03:19 10° WNW visible
29 Aug 5.6 16:21:05 10° SSW 16:25:09 24° W 16:29:16 10° NW visible
31 Aug 6.0 16:48:25 10° WSW 16:50:57 14° W 16:53:29 10° WNW visible
01 Sep 5.2 16:09:24 10° SSW 16:13:49 30° W 16:18:17 10° NW visible
